This demonstration page uses our WeatherBlox Daily Observations layout. Learn more.

Left ArrowRight Arrow

34.16533, -84.80231

Hourly Observations for March 15, 2022

Temp ( °F °C ) Dew Point ( °F °C ) Humidity (%) Winds ( mph kmh ) Pressure ( in mb ) Visibility ( mi km ) Precip ( " mm )
12:15 am 00:15 Cloudy 45 7 37 3 76 76 Calm 30.37 1028 10 16 0.00 0.00
12:35 am 00:35 Cloudy 45 7 37 3 76 76 E 3 6 30.36 1028 10 16 0.00 0.00
12:55 am 00:55 Mostly Cloudy 46 8 34 1 62 62 Calm 30.36 1028 10 16 0.00 0.00
1:15 am 01:15 Cloudy 46 8 37 3 71 71 Calm 30.36 1028 10 16 0.00 0.00
1:35 am 01:35 Cloudy 48 9 34 1 58 58 Calm 30.35 1028 10 16 0.00 0.00
1:55 am 01:55 Cloudy 48 9 36 2 62 62 Calm 30.35 1028 10 16 0.00 0.00
2:15 am 02:15 Cloudy 48 9 32 0 54 54 Calm 30.35 1028 10 16 0.00 0.00
2:35 am 02:35 Cloudy 46 8 37 3 71 71 ENE 5 7 30.35 1028 10 16 0.00 0.00
2:55 am 02:55 Cloudy 46 8 39 4 76 76 E 3 6 30.35 1028 10 16 0.00 0.00
3:15 am 03:15 Cloudy 48 9 34 1 58 58 E 3 6 30.33 1027 10 16 0.00 0.00
3:35 am 03:35 Cloudy 46 8 36 2 66 66 Calm 30.34 1027 10 16 0.00 0.00
3:55 am 03:55 Cloudy 46 8 36 2 66 66 Calm 30.33 1027 10 16 0.00 0.00
4:15 am 04:15 Cloudy 46 8 34 1 62 62 Calm 30.32 1027 10 16 0.00 0.00
4:35 am 04:35 Cloudy 46 8 34 1 62 62 Calm 30.31 1026 10 16 0.00 0.00
4:55 am 04:55 Cloudy 45 7 36 2 71 71 Calm 30.31 1026 10 16 0.00 0.00
5:15 am 05:15 Cloudy 46 8 34 1 62 62 Calm 30.31 1026 10 16 0.00 0.00
5:35 am 05:35 Cloudy 46 8 34 1 62 62 ENE 3 6 30.31 1026 10 16 0.00 0.00
5:55 am 05:55 Cloudy 46 8 34 1 62 62 E 5 7 30.30 1026 10 16 0.00 0.00
6:15 am 06:15 Cloudy 46 8 36 2 66 66 E 5 7 30.31 1026 10 16 0.00 0.00
6:35 am 06:35 Cloudy 45 7 36 2 71 71 E 5 7 30.31 1026 10 16 0.00 0.00
6:55 am 06:55 Cloudy 46 8 36 2 66 66 E 5 7 30.31 1026 10 16 0.00 0.00
7:15 am 07:15 Cloudy 45 7 36 2 71 71 E 5 7 30.31 1026 10 16 0.00 0.00
7:35 am 07:35 Cloudy 45 7 36 2 71 71 E 3 6 30.32 1027 10 16 0.00 0.00
7:55 am 07:55 Cloudy 46 8 37 3 71 71 ESE 5 7 30.32 1027 10 16 0.00 0.00
8:15 am 08:15 Mostly Cloudy 45 7 37 3 76 76 E 3 6 30.32 1027 10 16 0.00 0.00
8:35 am 08:35 Mostly Cloudy 46 8 37 3 71 71 E 5 7 30.32 1027 10 16 0.00 0.00
8:55 am 08:55 Mostly Cloudy 48 9 39 4 71 71 E 7 11 30.30 1026 10 16 0.00 0.00
9:15 am 09:15 Mostly Cloudy 50 10 39 4 67 67 VRB 5 7 30.30 1026 10 16 0.00 0.00
9:35 am 09:35 Partly Cloudy 50 10 39 4 67 67 E 8 13 30.29 1026 10 16 0.00 0.00
9:55 am 09:55 Partly Cloudy 52 11 41 5 67 67 E 6 9 30.29 1026 10 16 0.00 0.00
10:15 am 10:15 Mostly Sunny 54 12 43 6 67 67 ESE 9 15 30.27 1025 10 16 0.00 0.00
10:35 am 10:35 Mostly Cloudy 54 12 43 6 67 67 ESE 7 11 30.28 1026 10 16 0.00 0.00
10:55 am 10:55 Mostly Cloudy 55 13 45 7 67 67 E 7 11 30.28 1025 10 16 0.00 0.00
11:15 am 11:15 Cloudy 57 14 46 8 67 67 E 7 11 30.28 1025 10 16 0.00 0.00
11:35 am 11:35 Mostly Cloudy 59 15 46 8 63 63 VRB 6 9 30.29 1026 10 16 0.00 0.00
11:55 am 11:55 Partly Cloudy 61 16 48 9 63 63 VRB 7 11 30.26 1025 10 16 0.00 0.00
12:15 pm 12:15 Mostly Sunny 63 17 48 9 59 59 E 9 15 30.26 1025 10 16 0.00 0.00
12:35 pm 12:35 Mostly Cloudy 63 17 50 10 64 64 E 6 9 30.25 1024 10 16 0.00 0.00
12:55 pm 12:55 Mostly Cloudy 64 18 50 10 60 60 VRB 5 7 30.25 1024 10 16 0.00 0.00
1:15 pm 13:15 Cloudy 63 17 50 10 64 64 ESE 5 7 30.25 1024 10 16 0.00 0.00
1:35 pm 13:35 Cloudy 64 18 50 10 60 60 E 8 13 30.23 1024 10 16 0.00 0.00
1:55 pm 13:55 Cloudy 64 18 50 10 60 60 VRB 7 11 30.22 1023 10 16 0.00 0.00
2:15 pm 14:15 Partly Cloudy 63 17 50 10 64 64 ENE 6 9 30.21 1023 10 16 0.00 0.00
2:35 pm 14:35 Mostly Sunny 64 18 50 10 60 60 NE 5 7 30.20 1023 10 16 0.00 0.00
2:55 pm 14:55 Partly Cloudy with Light Rain 63 17 52 11 68 68 NE 5 7 30.19 1022 10 16 0.00 0.00
3:15 pm 15:15 Mostly Cloudy with Light Rain 63 17 54 12 73 73 Calm 30.19 1022 9 14 0.00 0.00
3:35 pm 15:35 Cloudy with Light Rain 63 17 54 12 73 73 ENE 5 7 30.19 1022 10 16 0.00 0.00
3:55 pm 15:55 Partly Cloudy with Light Rain 63 17 54 12 73 73 ENE 5 7 30.18 1022 10 16 0.00 0.00
4:15 pm 16:15 Partly Cloudy with Light Rain 64 18 54 12 68 68 ENE 6 9 30.17 1022 10 16 0.00 0.00
4:35 pm 16:35 Mostly Cloudy 64 18 54 12 68 68 VRB 7 11 30.16 1021 10 16 0.00 0.00
4:55 pm 16:55 Mostly Sunny 64 18 52 11 64 64 E 9 15 30.13 1020 10 16 0.00 0.00
5:15 pm 17:15 Mostly Cloudy 64 18 52 11 64 64 E 10 17 30.13 1020 10 16 0.00 0.00
5:35 pm 17:35 Cloudy 64 18 52 11 64 64 E 7 11 30.12 1020 10 16 0.00 0.00
5:55 pm 17:55 Mostly Cloudy 64 18 50 10 60 60 ESE 13 20 30.12 1020 10 16 0.00 0.00
6:15 pm 18:15 Sunny 64 18 52 11 64 64 ESE 10 17 30.11 1020 10 16 0.00 0.00
6:35 pm 18:35 Partly Cloudy with Light Rain 63 17 52 11 68 68 ESE 13 20 30.11 1020 10 16 0.00 0.00
6:55 pm 18:55 Partly Cloudy 63 17 52 11 68 68 E 7 11 30.10 1019 10 16 0.00 0.00
7:15 pm 19:15 Partly Cloudy 63 17 50 10 64 64 ESE 14 22 30.11 1020 10 16 0.00 0.00
7:35 pm 19:35 Mostly Cloudy 63 17 50 10 64 64 E 9 15 30.11 1020 10 16 0.00 0.00
7:55 pm 19:55 Cloudy with Light Rain 61 16 52 11 72 72 E 13 20 30.11 1020 8 13 0.00 0.00
8:15 pm 20:15 Cloudy with Light Rain 59 15 52 11 77 77 E 3 6 30.13 1020 9 14 0.00 0.00
8:35 pm 20:35 Cloudy with Light Rain 57 14 54 12 88 88 Calm 30.12 1020 8 13 0.00 0.00
8:55 pm 20:55 Cloudy 57 14 54 12 88 88 VRB 3 6 30.11 1020 10 16 0.01 0.25
9:15 pm 21:15 Cloudy with Light Rain 59 15 52 11 77 77 E 7 11 30.11 1019 9 14 0.00 0.00
9:35 pm 21:35 Cloudy 59 15 52 11 77 77 E 7 11 30.11 1019 10 16 0.00 0.00
9:55 pm 21:55 Cloudy 59 15 52 11 77 77 E 10 17 30.10 1019 10 16 0.00 0.00
10:15 pm 22:15 Cloudy with Light Rain 59 15 52 11 77 77 E 8 13 30.10 1019 10 16 0.00 0.00
10:35 pm 22:35 Cloudy with Light Rain 59 15 52 11 77 77 E 12 19 30.10 1019 10 16 0.00 0.00
10:55 pm 22:55 Cloudy 59 15 52 11 77 77 E 10 17 30.10 1019 10 16 0.01 0.25
11:15 pm 23:15 Cloudy 59 15 52 11 77 77 E 13 20 30.10 1019 10 16 0.00 0.00
11:35 pm 23:35 Cloudy 61 16 52 11 72 72 E 12 19 30.09 1019 10 16 0.00 0.00
11:55 pm 23:55 Cloudy with Light Rain 59 15 52 11 77 77 E 14 22 30.09 1019 9 14 0.00 0.00

Powered by AerisWeather